Location: Barcelona
(41.3830°N, 2.1830°E)
Time: 13:28:14
(UTC+01:00)

ISS - Pass Details

Date: 05 December 2019
Orbit: 411 x 421 km, 51.6° (Epoch: 11 December)

Event Time Altitude Azimuth Distance (km) Brightness Sun altitude
Rises 19:12:20 0° 309° (NW) 2,361 0.6 -20.1°
Reaches altitude 10° 19:14:36 10° 321° (NW) 1,498 -0.6 -20.5°
Enters shadow 19:16:16 22° 344° (NNW) 970 -1.9 -20.8°
